Simultaneous Nadir Overpasses (SNOs) Predictions

Prediction of SNOs over PacNW region [( 10.00, 139.50) to ( 22.70, 165.60)] between NOAA-19 and NPP Satellites:

Table of predicted SNOs over PacNW region for the next 30.0 days since TLE Epoch: 3/28/2014
Index Date (NOAA-19) Time (NOAA-19) NOAA-19 Lat,Lon Date (NPP) Time (NPP) NPP Lat,Lon Distance(km) Time Diff (sec)
1 03/31/2014 03:48:58 19.95, 146.51 03/31/2014 03:49:45 18.84, 141.87 502.87 47
2 03/31/2014 16:25:33 11.03, 142.37 03/31/2014 16:22:13 11.86, 138.60 420.86 200
3 04/12/2014 15:50:50 22.59, 153.16 04/12/2014 15:53:55 23.82, 147.80 565.51 185
4 04/13/2014 03:07:10 22.68, 156.60 04/13/2014 03:06:41 21.78, 152.20 464.82 29
5 04/13/2014 15:43:17 10.05, 152.92 04/13/2014 15:39:40 7.08, 148.57 581.31 217
6 04/25/2014 15:08:06 22.63, 163.99 04/25/2014 15:09:57 23.81, 158.86 540.04 111
7 04/26/2014<
